Hourly Data Report for October 05, 2017

All times are specified in Local Standard Time (LST). Add 1 hour to adjust for Daylight Saving Time where and when it is observed.

BELLA COOLA AIRPORT
BRITISH COLUMBIA

52°23'19.000" N
126°35'13.000" W
36.90 m
1060844
71533
VBD

Download Data

Hourly Data (October 2017)
Hourly Data Report for October 5, 2017
Temp Definition
°C
Dew Point Temp Definition
°C
Rel Hum Definition
%
Wind Dir Definition
10's deg

Wind Spd Definition
km/h
Visibility Definition
km
Stn Press Definition
kPa
Hmdx Definition


Wind Chill Definition


Weather Definition


TIME
00:00 1.7 1.3 97 8 2   101.90     LegendNANA
01:00 1.4 1.0 97 7 2   101.91     LegendNANA
02:00 1.0 0.6 98 10 1   101.90     LegendNANA
03:00 0.4 0.1 98 7 1   101.90     LegendNANA
04:00 -0.4 -0.7 98   0   101.91     LegendNANA
05:00 -0.1 -0.4 98 0 1   101.89   0 LegendNANA
06:00 -0.5 -0.8 98   0   101.88     LegendNANA
07:00 -0.7 -1.0 98 14 1   101.92   -1 LegendNANA
08:00 -0.4 -0.6 98 0 1   101.93   -1 LegendNANA
09:00 0.3 0.0 98 13 1   101.90     LegendNANA
10:00 6.5 5.0 90   0   101.84     LegendNANA
11:00 10.6 4.1 64 22 2   101.79     LegendNANA
12:00 12.0 3.2 55 24 6   101.70     LegendNANA
13:00 14.1 3.8 50 20 4   101.62     LegendNANA
14:00 15.4 4.1 47 26 9   101.55     LegendNANA
15:00 15.8 4.4 47 27 12   101.45     LegendNANA
16:00 15.5 5.1 50 23 8   101.35     LegendNANA
17:00 14.6 4.0 49 30 15   101.27     LegendNANA
18:00 14.5 4.2 50 27 9   101.26     LegendNANA
19:00 9.1 5.5 78 5 5   101.28     LegendNANA
20:00 8.1 5.7 85 10 5   101.28     LegendNANA
21:00 7.6 5.5 86 11 3   101.20     LegendNANA
22:00 12.8 3.6 54 29 9   101.13     LegendNANA
23:00 12.8 4.7 58 27 18   101.05     LegendNANA

Notes on Data Quality.

Legend

  • E = Estimated
  • M = Missing
  • NA = Not Available
  • ‡ = Partner data that is not subject to review by the National Climate Archives
Date modified: